Sioux City, IA

7:41 PM CDT on August 17, 2017 (GMT -0500)
Sioux Gateway

Weather History for KSUX - April, 2014

Change the Weather History Date:

Wednesday, April 23, 2014

  Actual Average Record
Temperature  
Mean Temperature 57 °F 53 °F  
Max Temperature 65 °F 66 °F 92 °F (2009)
Min Temperature 49 °F 40 °F 25 °F (1996)
Degree Days  
Heating Degree Days 8 13  
Month to date heating degree days 386 395  
Since 1 July heating degree days 6970 6573  
Cooling Degree Days 0 1  
Month to date cooling degree days 9 3  
Year to date cooling degree days 9 3  
Growing Degree Days 6 (Base 50)    
Moisture  
Dew Point 42 °F    
Average Humidity 65    
Maximum Humidity 89    
Minimum Humidity 40    
Precipitation  
Precipitation 0.17 in 0.11 in 1.71 in (1935)
Month to date precipitation 1.05 2.21  
Year to date precipitation 2.20 5.50  
Snow  
Snow 0.00 in 0.00 in 0.20 in (2001)
Month to date snowfall 5.3 1.6  
Since 1 July snowfall 23.8 34.6  
Snow Depth 0.00 in    
Sea Level Pressure  
Sea Level Pressure 29.78 in    
Wind  
Wind Speed 21 mph (SE)    
Max Wind Speed 38 mph    
Max Gust Speed 49 mph    
Visibility 10 miles    
Events Rain , Thunderstorm    
T = Trace of Precipitation, MM = Missing Value Source: NWS Daily Summary

Daily Weather History Graph

Daily Weather History Graph

Search for Another Location

Airport or City:

Trip Planner

Search our weather history database for the weather conditions in past years. The results will help you decide how hot, cold, wet, or windy it might be!

Date:

Astronomy

Apr. 23, 2014 Rise Set
Actual Time 6:32 AM CDT 8:16 PM CDT
Civil Twilight 6:02 AM CDT 8:46 PM CDT
Nautical Twilight 5:25 AM CDT 9:22 PM CDT
Astronomical Twilight 4:46 AM CDT 10:01 PM CDT
Moon 3:11 AM CDT (4/23) 2:19 PM CDT (4/23)
Length of Visible Light 14h 44m
Length of Day
13h 44m
Waning Crescent, 34% of the Moon is Illuminated
Apr 23
Waning Crescent
Apr 29
New
May 6
First Quarter
May 14
Full
May 21
Last Quarter

Hourly Weather History & Observations

Time (CDT) Temp. Dew Point Humidity Pressure Visibility Wind Dir Wind Speed Gust Speed Precip Events Conditions
12:52 AM 57.2 °F 33.8 °F 41% 29.95 in 10.0 mi SE 13.8 mph - N/A   Clear
1:52 AM 55.0 °F 34.0 °F 45% 29.96 in 10.0 mi SE 11.5 mph - N/A   Partly Cloudy
2:52 AM 55.0 °F 34.0 °F 45% 29.92 in 10.0 mi SE 15.0 mph - N/A   Scattered Clouds
3:52 AM 53.1 °F 34.0 °F 48% 29.91 in 10.0 mi SE 15.0 mph - N/A   Partly Cloudy
4:03 AM 53.1 °F 34.0 °F 48% 29.90 in 10.0 mi SE 15.0 mph - N/A Thunderstorm Partly Cloudy
4:27 AM 53.1 °F 35.1 °F 50% 29.91 in 10.0 mi SE 17.3 mph - 0.00 in Rain Light Rain
4:52 AM 51.8 °F 39.2 °F 62% 29.91 in 10.0 mi ESE 13.8 mph - N/A Rain , Thunderstorm Light Rain
5:00 AM 50.0 °F 39.9 °F 68% 29.91 in 10.0 mi ESE 13.8 mph - 0.01 in Rain , Thunderstorm Light Thunderstorms and Rain
5:40 AM 50.0 °F 41.0 °F 71% 29.89 in 10.0 mi East 13.8 mph - 0.02 in Rain , Thunderstorm Light Rain
5:50 AM 51.8 °F 39.2 °F 62% 29.89 in 10.0 mi SE 17.3 mph 23.0 mph 0.02 in   Overcast
5:52 AM 51.1 °F 37.9 °F 61% 29.89 in 10.0 mi SE 19.6 mph 24.2 mph 0.02 in   Overcast
6:52 AM 50.0 °F 37.0 °F 61% 29.88 in 10.0 mi SE 20.7 mph 28.8 mph 0.00 in   Mostly Cloudy
7:52 AM 48.9 °F 39.0 °F 69% 29.89 in 10.0 mi SE 19.6 mph - 0.01 in Rain Light Rain
8:52 AM 50.0 °F 39.9 °F 68% 29.86 in 10.0 mi SE 19.6 mph - 0.00 in   Overcast
9:52 AM 52.0 °F 41.0 °F 66% 29.84 in 10.0 mi SE 21.9 mph 35.7 mph 0.00 in   Partly Cloudy
10:52 AM 53.1 °F 42.1 °F 66% 29.80 in 10.0 mi SE 28.8 mph 42.6 mph N/A   Mostly Cloudy
11:52 AM 55.0 °F 42.1 °F 62% 29.80 in 10.0 mi SSE 26.5 mph 39.1 mph 0.00 in   Clear
12:52 PM 60.1 °F 43.0 °F 53% 29.75 in 10.0 mi SSE 32.2 mph 41.4 mph 0.00 in   Clear
1:52 PM 62.1 °F 41.0 °F 46% 29.70 in 10.0 mi SSE 32.2 mph 46.0 mph 0.00 in Rain Light Rain
2:52 PM 64.0 °F 41.0 °F 43% 29.70 in 10.0 mi South 31.1 mph 41.4 mph 0.00 in   Clear
3:52 PM 64.0 °F 43.0 °F 46% 29.71 in 10.0 mi South 29.9 mph 35.7 mph N/A   Clear
4:52 PM 63.0 °F 43.0 °F 48% 29.69 in 10.0 mi SSE 27.6 mph 34.5 mph N/A   Clear
5:52 PM 62.1 °F 43.0 °F 50% 29.68 in 10.0 mi SE 20.7 mph 27.6 mph N/A   Clear
6:52 PM 60.1 °F 42.1 °F 51% 29.65 in 10.0 mi SE 18.4 mph 28.8 mph N/A   Clear
7:23 PM 59.0 °F 42.1 °F 53% 29.65 in 10.0 mi SE 18.4 mph 29.9 mph N/A Thunderstorm Scattered Clouds
7:38 PM 55.9 °F 45.0 °F 67% 29.63 in 10.0 mi SE 25.3 mph 32.2 mph 0.01 in Rain , Thunderstorm Light Thunderstorms and Rain
7:52 PM 54.0 °F 46.0 °F 75% 29.65 in 9.0 mi SE 17.3 mph 27.6 mph 0.02 in Rain , Thunderstorm Light Thunderstorms and Rain
7:59 PM 54.0 °F 46.0 °F 75% 29.64 in 10.0 mi SE 18.4 mph - 0.00 in Rain , Thunderstorm Light Rain
8:07 PM 53.1 °F 46.0 °F 77% 29.63 in 10.0 mi ESE 20.7 mph 28.8 mph 0.00 in   Mostly Cloudy
8:52 PM 53.1 °F 46.0 °F 77% 29.66 in 10.0 mi East 9.2 mph - 0.00 in   Clear
9:52 PM 52.0 °F 46.9 °F 83% 29.71 in 10.0 mi East 8.1 mph - 0.01 in Rain Light Rain
10:36 PM 52.0 °F 46.9 °F 83% 29.70 in 10.0 mi NNE 8.1 mph - 0.01 in Rain , Thunderstorm Light Rain
10:52 PM 52.0 °F 48.0 °F 86% 29.65 in 10.0 mi East 19.6 mph - 0.01 in Rain , Thunderstorm Light Rain
11:10 PM 54.0 °F 50.0 °F 86% 29.67 in 10.0 mi East 12.7 mph - 0.01 in Rain Light Rain
11:23 PM 55.0 °F 51.1 °F 86% 29.67 in 10.0 mi SE 12.7 mph 29.9 mph 0.01 in Rain Light Rain
11:30 PM 55.9 °F 51.1 °F 84% 29.68 in 10.0 mi South 10.4 mph 18.4 mph 0.01 in Rain Light Rain
11:52 PM 54.0 °F 48.9 °F 83% 29.67 in 9.0 mi SSE 19.6 mph 31.1 mph 0.03 in Rain Rain